Location: Huntsville
(41.2590°N, 111.7678°W)
Time: 06:13:52
(UTC+00:00)

Vanguard 3 - Pass Details

Date: 18 June 2021
Orbit: 508 x 3261 km, 33.4° (Epoch: 29 July)

Event Time Altitude Azimuth Distance (km) Brightness Sun altitude
Rises 14:27:21 0° 219° (SW) 2,597 9.4 26.0°
Reaches altitude 10° 14:30:07 10° 195° (SSW) 1,726 8.7 26.5°
Maximum altitude 14:32:25 16° 156° (SSE) 1,486 8.8 26.9°
Drops below altitude 10° 14:34:59 10° 118° (ESE) 1,963 10.1 27.4°
Sets 14:38:29 0° 96° (E) 3,188 11.4 28.0°
